Regional Weather Roundup
Issued by NWS Boston, MA

Current Version | Previous Version | Text Only | Print | Product List | Glossary Off
Versions: 1 2 3 4 5 6 7 8 9 10 11 12 13 14 15 16 17 18 19 20 21 22 23 24 25 26 27 28 29 30 31 32 33 34 35 36 37 38 39 40 41 42 43 44 45 46 47 48 49 50
993 ASUS41 KBOX 232310 RWRBOX REGIONAL WEATHER ROUNDUP NATIONAL WEATHER SERVICE TAUNTON MA 700 PM EDT THU MAR 23 2017 NOTE: "FAIR" INDICATES FEW OR NO CLOUDS BELOW 12,000 FEET WITH NO SIGNIFICANT WEATHER AND/OR OBSTRUCTIONS TO VISIBILITY. MAZALL-240000- EASTERN MASSACHUSETTS CITY SKY/WX TMP DP RH WIND PRES REMARKS BOSTON PTCLDY 37 0 21 NW9 30.45R WCI 30 BEVERLY CLEAR 35 1 23 W10G21 30.43R WCI 27 LAWRENCE CLEAR 34 2 25 W7G18 30.45R WCI 28 BEDFORD CLEAR 34 0 23 NW8 30.44R WCI 27 BLUE HILL N/A 31 4 31 NW14G23 30.41R WCI 21 NORWOOD CLEAR 36 0 21 NW10 30.45R WCI 28 MARSHFIELD CLEAR 36 0 21 NW6G15 30.44R WCI 31 PLYMOUTH CLEAR 35 -1 21 NW8 30.45R WCI 29 TAUNTON CLEAR 36 -2 20 NW6 30.45R WCI 31 NEW BEDFORD CLEAR 36 1 22 W9 30.45R WCI 29 $$ MAZALL-240000- CAPE COD AND THE ISLANDS CITY SKY/WX TMP DP RH WIND PRES REMARKS FALMOUTH N/A 36 -4 18 MISG 30.45R HYANNIS CLEAR 36 3 25 NW6 30.43R WCI 31 CHATHAM CLEAR 35 9 33 CALM 30.45R NANTUCKET CLEAR 33 6 32 W7 30.45R WCI 27 MARTHAS VNYRD CLEAR 36 1 22 NW7 30.46R WCI 30 $$ MAZALL-240000- CENTRAL AND WESTERN MASSACHUSETTS CITY SKY/WX TMP DP RH WIND PRES REMARKS WORCESTER CLEAR 30 -2 25 W8 30.42R WCI 22 FITCHBURG CLEAR 35 2 24 W7 30.45R WCI 29 ORANGE CLEAR 33 1 25 W7 30.43S WCI 27 SPRINGFIELD PTCLDY 35 3 27 W12 30.46R WCI 26 WESTFIELD CLEAR 34 3 27 W8 30.47R WCI 27 NORTH ADAMS CLEAR 32 5 32 W6 30.45R WCI 26 PITTSFIELD CLEAR 29 3 33 W7 30.42R WCI 22 $$ RIZALL-240000- RHODE ISLAND CITY SKY/WX TMP DP RH WIND PRES REMARKS PROVIDENCE PTCLDY 36 -2 20 NW13G24 30.47R WCI 27 NEWPORT CLEAR 36 3 25 NW10 30.46R WCI 28 BLOCK ISLAND CLEAR 36 6 28 W8 30.49R WCI 30 SMITHFIELD CLEAR 33 0 24 W7 30.46R WCI 27 WESTERLY CLEAR 37 -1 20 VRB6 30.50R $$ CTZALL-240000- CONNECTICUT CITY SKY/WX TMP DP RH WIND PRES REMARKS BRADLEY INTL CLEAR 34 5 29 NW8 30.49R WCI 27 HARTFORD CLEAR 37 1 22 NW10 30.49S WCI 30 BRIDGEPORT CLEAR 40 0 18 W7 30.51R DANBURY CLEAR 37 -3 18 W5 30.49R GROTON CLEAR 36 -1 21 NW9 30.49R WCI 29 NEW HAVEN CLEAR 38 1 21 NW5 30.51R CHESTER FAIR 36 -4 18 NW7 30.48R WCI 30 MERIDEN CLEAR 38 0 20 W5 30.50R WILLIMANTIC CLEAR 37 1 22 W5 30.49R OXFORD CLEAR 36 0 21 NW6 30.48R WCI 31 $$ MEZ002-015-021-024-NHZ003-005-008-011-012-014-VTZ005-008-240000- NORTHERN NEW ENGLAND CITY SKY/WX TMP DP RH WIND PRES REMARKS PORTLAND ME CLEAR 31 -2 24 NW8 30.41R WCI 23 BANGOR ME CLEAR 23 0 36 NW16G24 30.37R WCI 10 CONCORD NH CLEAR 33 2 26 NW13 30.43R WCI 24 MANCHESTER NH PTCLDY 35 -2 20 W6 30.42R WCI 30 NASHUA NH NOT AVBL PORTSMOUTH NH PTCLDY 33 -1 24 W10 30.41R WCI 24 JAFFREY NH NOT AVBL KEENE NH NOT AVBL BURLINGTON VT CLEAR 31 5 33 N5 30.45S WCI 26 MT. WASHINGTON PTCLDY -2 -13 60 NW53G62 N/A WCI -35 $$ NYZ052-076-240000- EASTERN NEW YORK CITY SKY/WX TMP DP RH WIND PRES REMARKS ALBANY PTCLDY 34 6 31 W12 30.49R WCI 25 NEW YORK CITY PTCLDY 44 4 19 W8G16 30.50S $$ ANZALL-240000- MARINE OBSERVATIONS STATION/POSITION TIME TEMP WIND PRES VSBY WAVE AIR SEA DIR/SP/G HT/PER (UTC) (F) (DEG/KT/KT) (MB) (MI) (FT/S) BOSTON BUOY 2150 37 40 280/ 16/ 19 1029.5 3/ 4 BUZZARDS BAY 2300 37 320/ 16/ 17 1032.1R NANTUCKET SOUND 2250 39 1030.7R 2/ 3 MASS BAY-STELLWA 2204 37 39 310/ 16/ 19 1028.6R 4/ 4 ISLE OF SHOALS 2300 35 300/ 20/ 23 1029.8R S OF BLOCK IS 2255 40 N/A 4/ 5 $$ ......................KEY......................... SKY/WX - SKY CONDITION/PRESENT WEATHER TMP - TEMPERATURE IN FAHRENHEIT DWPT - DEWPOINT IN FAHRENHEIT RH - RELATIVE HUMIDITY IN PERCENT WIND - DIRECTION AND SPEED IN MPH PRES - MEAN SEA LEVEL PRESSURE IN INCHES OF HG WCI - WIND CHILL INDEX VSB - VISIBILITY IN MILES HX - HEAT INDEX TC - TEMPERATURE IN CELSIUS VRB - VARIABLE WIND DIRECTION N/A - NOT AVAILABLE

USA.gov is the U.S. government's official web portal to all federal, state and local government web resources and services.